Time,TemperatureF,DewpointF,PressureIn,WindDirection,WindDirectionDegrees,WindSpeedMPH,WindSpeedGustMPH,Humidity,HourlyPrecipIn,Conditions,Clouds,dailyrainin,SoftwareType,DateUTC
2013-02-11 00:01:00,41.0,38.0,30.32,NNW,335,0.0,1.0,90,-99.99,,,-99.99,,2013-02-11 08:01:00,
2013-02-11 00:11:00,41.0,38.0,30.32,NNW,335,0.0,0.0,90,-99.99,,,-99.99,,2013-02-11 08:11:00,
2013-02-11 00:21:00,41.0,38.0,30.32,NNW,335,0.0,0.0,90,-99.99,,,-99.99,,2013-02-11 08:21:00,
2013-02-11 00:31:00,41.0,38.0,30.32,NNW,335,0.0,0.0,90,-99.99,,,-99.99,,2013-02-11 08:31:00,
2013-02-11 00:42:00,41.0,38.0,30.32,NNW,335,0.0,0.0,90,-99.99,,,-99.99,,2013-02-11 08:42:00,
2013-02-11 00:52:00,41.0,38.0,30.32,NNW,335,0.0,0.0,90,-99.99,,,-99.99,,2013-02-11 08:52:00,
2013-02-11 01:01:00,41.0,38.0,30.32,NNW,335,0.0,0.0,90,-99.99,,,-99.99,,2013-02-11 09:01:00,
2013-02-11 01:12:00,41.0,38.0,30.32,NNW,335,0.0,0.0,90,-99.99,,,-99.99,,2013-02-11 09:12:00,
2013-02-11 01:21:00,41.0,38.0,30.32,NNW,335,0.0,0.0,90,-99.99,,,-99.99,,2013-02-11 09:21:00,
2013-02-11 01:31:00,41.0,38.0,30.32,NNW,335,0.0,0.0,90,-99.99,,,-99.99,,2013-02-11 09:31:00,
2013-02-11 01:41:00,41.0,38.0,30.32,NNW,335,0.0,0.0,90,-99.99,,,-99.99,,2013-02-11 09:41:00,
2013-02-11 01:52:00,41.0,38.0,30.32,NNW,335,0.0,1.0,90,-99.99,,,-99.99,,2013-02-11 09:52:00,
2013-02-11 02:01:00,41.0,38.0,30.32,NNW,335,0.0,1.0,89,-99.99,,,-99.99,,2013-02-11 10:01:00,
2013-02-11 02:11:00,41.0,38.0,30.32,NNW,335,0.0,1.0,89,-99.99,,,-99.99,,2013-02-11 10:11:00,
2013-02-11 02:21:00,41.0,38.0,30.32,NNW,335,0.0,1.0,89,-99.99,,,-99.99,,2013-02-11 10:21:00,
2013-02-11 02:31:00,41.0,38.0,30.32,NNW,335,0.0,2.0,90,-99.99,,,-99.99,,2013-02-11 10:31:00,
2013-02-11 02:41:00,41.0,38.0,30.32,NNW,335,0.0,2.0,90,-99.99,,,-99.99,,2013-02-11 10:41:00,
2013-02-11 02:51:00,41.0,38.0,30.32,NNW,335,0.0,1.0,90,-99.99,,,-99.99,,2013-02-11 10:51:00,
2013-02-11 03:01:00,41.0,39.0,30.31,NNW,335,0.0,1.0,91,-99.99,,,-99.99,,2013-02-11 11:01:00,
2013-02-11 03:11:00,41.0,39.0,30.31,NNW,335,0.0,1.0,91,-99.99,,,-99.99,,2013-02-11 11:11:00,
2013-02-11 03:21:00,40.0,38.0,30.31,NNW,335,0.0,0.0,91,-99.99,,,-99.99,,2013-02-11 11:21:00,
2013-02-11 03:32:00,40.0,38.0,30.31,NNW,335,0.0,0.0,92,-99.99,,,-99.99,,2013-02-11 11:32:00,
2013-02-11 03:42:00,40.0,38.0,30.31,NNW,335,0.0,0.0,92,-99.99,,,-99.99,,2013-02-11 11:42:00,
2013-02-11 03:52:00,40.0,38.0,30.31,NNW,335,0.0,0.0,92,-99.99,,,-99.99,,2013-02-11 11:52:00,
2013-02-11 04:02:00,40.0,38.0,30.31,NNW,335,0.0,0.0,92,-99.99,,,-99.99,,2013-02-11 12:02:00,
2013-02-11 04:12:00,40.0,38.0,30.31,NNW,335,0.0,0.0,92,-99.99,,,-99.99,,2013-02-11 12:12:00,
2013-02-11 04:22:00,40.0,38.0,30.31,NNW,335,0.0,0.0,93,-99.99,,,-99.99,,2013-02-11 12:22:00,
2013-02-11 04:31:00,40.0,38.0,30.31,NNW,335,0.0,0.0,93,-99.99,,,-99.99,,2013-02-11 12:31:00,
2013-02-11 04:42:00,40.0,38.0,30.31,NNW,335,0.0,0.0,93,-99.99,,,-99.99,,2013-02-11 12:42:00,
2013-02-11 04:52:00,40.0,38.0,30.31,NNW,335,0.0,0.0,93,-99.99,,,-99.99,,2013-02-11 12:52:00,
2013-02-11 05:01:00,40.0,38.0,30.31,NNW,335,0.0,0.0,93,-99.99,,,-99.99,,2013-02-11 13:01:00,
2013-02-11 05:11:00,40.0,38.0,30.31,NNW,335,0.0,0.0,93,-99.99,,,-99.99,,2013-02-11 13:11:00,
2013-02-11 05:21:00,40.0,38.0,30.31,NNW,335,0.0,0.0,93,-99.99,,,-99.99,,2013-02-11 13:21:00,
2013-02-11 05:32:00,40.0,38.0,30.31,NNW,335,0.0,0.0,93,-99.99,,,-99.99,,2013-02-11 13:32:00,
2013-02-11 05:41:00,40.0,38.0,30.31,NNW,335,0.0,0.0,93,-99.99,,,-99.99,,2013-02-11 13:41:00,
2013-02-11 05:51:00,40.0,38.0,30.31,NNW,335,0.0,0.0,93,-99.99,,,-99.99,,2013-02-11 13:51:00,
2013-02-11 06:01:00,40.0,38.0,30.31,NNW,335,0.0,0.0,93,-99.99,,,-99.99,,2013-02-11 14:01:00,
2013-02-11 06:11:00,40.0,38.0,30.31,NNW,335,0.0,0.0,93,-99.99,,,-99.99,,2013-02-11 14:11:00,
2013-02-11 06:21:00,40.0,38.0,30.31,NNW,335,0.0,0.0,94,-99.99,,,-99.99,,2013-02-11 14:21:00,
2013-02-11 06:33:00,40.0,38.0,30.31,NNW,335,0.0,0.0,94,-99.99,,,-99.99,,2013-02-11 14:33:00,
2013-02-11 06:42:00,40.0,38.0,30.31,NNW,335,0.0,0.0,94,-99.99,,,-99.99,,2013-02-11 14:42:00,
2013-02-11 06:52:00,40.0,38.0,30.31,NNW,335,0.0,0.0,94,-99.99,,,-99.99,,2013-02-11 14:52:00,
2013-02-11 07:01:00,40.0,38.0,30.31,NNW,335,0.0,1.0,94,-99.99,,,-99.99,,2013-02-11 15:01:00,
2013-02-11 07:11:00,40.0,38.0,30.31,NNW,335,0.0,1.0,94,-99.99,,,-99.99,,2013-02-11 15:11:00,
2013-02-11 07:22:00,40.0,38.0,30.31,NNW,335,0.0,1.0,94,-99.99,,,-99.99,,2013-02-11 15:22:00,
2013-02-11 07:31:00,40.0,38.0,30.31,NNW,335,0.0,1.0,94,-99.99,,,-99.99,,2013-02-11 15:31:00,
2013-02-11 07:41:00,40.0,38.0,30.31,NNW,335,0.0,1.0,94,-99.99,,,-99.99,,2013-02-11 15:41:00,
2013-02-11 07:52:00,40.0,38.0,30.31,NNW,335,0.0,1.0,94,-99.99,,,-99.99,,2013-02-11 15:52:00,
2013-02-11 08:01:00,40.0,38.0,30.31,NNW,335,0.0,1.0,94,-99.99,,,-99.99,,2013-02-11 16:01:00,
2013-02-11 08:11:00,40.0,38.0,30.31,NNW,335,0.0,1.0,94,-99.99,,,-99.99,,2013-02-11 16:11:00,
2013-02-11 08:21:00,40.0,38.0,30.31,NNW,335,0.0,1.0,94,-99.99,,,-99.99,,2013-02-11 16:21:00,
2013-02-11 08:31:00,40.0,39.0,30.31,NNW,335,0.0,2.0,95,-99.99,,,-99.99,,2013-02-11 16:31:00,
2013-02-11 08:41:00,40.0,38.0,30.32,NNW,335,0.0,3.0,94,-99.99,,,-99.99,,2013-02-11 16:41:00,
2013-02-11 08:52:00,40.0,38.0,30.32,NNW,335,0.0,3.0,94,-99.99,,,-99.99,,2013-02-11 16:52:00,
2013-02-11 09:01:00,40.0,38.0,30.32,South,172,0.0,2.0,94,-99.99,,,-99.99,,2013-02-11 17:01:00,
2013-02-11 09:11:00,40.0,38.0,30.32,South,172,0.0,2.0,94,-99.99,,,-99.99,,2013-02-11 17:11:00,
2013-02-11 09:21:00,40.0,38.0,30.32,South,172,0.0,1.0,94,-99.99,,,-99.99,,2013-02-11 17:21:00,
2013-02-11 09:32:00,40.0,38.0,30.32,SE,145,1.0,3.0,94,-99.99,,,-99.99,,2013-02-11 17:32:00,
2013-02-11 09:41:00,40.0,38.0,30.32,SE,145,1.0,3.0,94,-99.99,,,-99.99,,2013-02-11 17:41:00,
2013-02-11 09:52:00,40.0,38.0,30.33,SE,140,0.0,3.0,94,-99.99,,,-99.99,,2013-02-11 17:52:00,
2013-02-11 10:01:00,40.0,38.0,30.33,SE,140,1.0,3.0,94,-99.99,,,-99.99,,2013-02-11 18:01:00,
2013-02-11 10:11:00,40.0,38.0,30.33,SE,140,1.0,3.0,94,-99.99,,,-99.99,,2013-02-11 18:11:00,
2013-02-11 10:21:00,41.0,39.0,30.34,SE,140,1.0,3.0,94,-99.99,,,-99.99,,2013-02-11 18:21:00,
2013-02-11 10:31:00,41.0,39.0,30.33,SSE,148,2.0,5.0,94,-99.99,,,-99.99,,2013-02-11 18:31:00,
2013-02-11 10:41:00,41.0,40.0,30.33,SSE,158,2.0,4.0,95,-99.99,,,-99.99,,2013-02-11 18:41:00,
2013-02-11 10:53:00,41.0,40.0,30.33,SSE,158,2.0,4.0,95,-99.99,,,-99.99,,2013-02-11 18:53:00,
2013-02-11 11:01:00,41.0,40.0,30.33,SSE,152,1.0,6.0,95,-99.99,,,-99.99,,2013-02-11 19:01:00,
2013-02-11 11:11:00,42.0,41.0,30.33,South,173,0.0,2.0,95,-99.99,,,-99.99,,2013-02-11 19:11:00,
2013-02-11 11:21:00,42.0,41.0,30.33,South,173,0.0,2.0,95,-99.99,,,-99.99,,2013-02-11 19:21:00,
2013-02-11 11:31:00,42.0,40.0,30.33,SSE,157,0.0,4.0,94,-99.99,,,-99.99,,2013-02-11 19:31:00,
2013-02-11 11:41:00,42.0,40.0,30.33,SSE,157,0.0,4.0,94,-99.99,,,-99.99,,2013-02-11 19:41:00,
2013-02-11 11:51:00,42.0,40.0,30.33,ESE,109,1.0,5.0,93,-99.99,,,-99.99,,2013-02-11 19:51:00,
2013-02-11 12:01:00,42.0,40.0,30.32,SSE,166,1.0,3.0,93,-99.99,,,-99.99,,2013-02-11 20:01:00,
2013-02-11 12:11:00,43.0,40.0,30.32,East,100,0.0,6.0,90,-99.99,,,-99.99,,2013-02-11 20:11:00,
2013-02-11 12:21:00,43.0,40.0,30.32,East,100,0.0,6.0,90,-99.99,,,-99.99,,2013-02-11 20:21:00,
2013-02-11 12:31:00,43.0,40.0,30.32,ESE,118,1.0,4.0,89,-99.99,,,-99.99,,2013-02-11 20:31:00,
2013-02-11 12:41:00,43.0,40.0,30.32,ESE,118,1.0,4.0,89,-99.99,,,-99.99,,2013-02-11 20:41:00,
2013-02-11 12:52:00,43.0,40.0,30.32,ESE,118,1.0,4.0,89,-99.99,,,-99.99,,2013-02-11 20:52:00,
2013-02-11 13:01:00,44.0,40.0,30.31,ESE,102,2.0,3.0,85,-99.99,,,-99.99,,2013-02-11 21:01:00,
2013-02-11 13:11:00,44.0,39.0,30.31,ENE,75,2.0,6.0,82,-99.99,,,-99.99,,2013-02-11 21:11:00,
2013-02-11 13:21:00,44.0,39.0,30.31,ENE,75,2.0,6.0,82,-99.99,,,-99.99,,2013-02-11 21:21:00,
2013-02-11 13:31:00,44.0,39.0,30.31,East,94,1.0,5.0,81,-99.99,,,-99.99,,2013-02-11 21:31:00,
2013-02-11 13:41:00,44.0,38.0,30.31,ESE,117,0.0,3.0,80,-99.99,,,-99.99,,2013-02-11 21:41:00,
2013-02-11 13:52:00,44.0,38.0,30.31,ESE,117,0.0,3.0,80,-99.99,,,-99.99,,2013-02-11 21:52:00,
2013-02-11 14:01:00,45.0,38.0,30.30,SSE,162,1.0,6.0,77,-99.99,,,-99.99,,2013-02-11 22:01:00,
2013-02-11 14:11:00,45.0,38.0,30.30,East,100,3.0,7.0,75,-99.99,,,-99.99,,2013-02-11 22:11:00,
2013-02-11 14:21:00,45.0,38.0,30.30,East,100,3.0,7.0,75,-99.99,,,-99.99,,2013-02-11 22:21:00,
2013-02-11 14:31:00,45.0,38.0,30.30,SSE,157,0.0,9.0,76,-99.99,,,-99.99,,2013-02-11 22:31:00,
2013-02-11 14:41:00,45.0,38.0,30.30,SSE,157,0.0,9.0,76,-99.99,,,-99.99,,2013-02-11 22:41:00,
2013-02-11 14:52:00,46.0,38.0,30.30,SSE,166,1.0,6.0,74,-99.99,,,-99.99,,2013-02-11 22:52:00,
2013-02-11 15:01:00,46.0,38.0,30.30,ESE,119,3.0,5.0,74,-99.99,,,-99.99,,2013-02-11 23:01:00,
2013-02-11 15:11:00,46.0,38.0,30.30,ESE,119,3.0,5.0,74,-99.99,,,-99.99,,2013-02-11 23:11:00,
2013-02-11 15:21:00,46.0,38.0,30.30,SE,142,1.0,4.0,73,-99.99,,,-99.99,,2013-02-11 23:21:00,
2013-02-11 15:31:00,46.0,37.0,30.30,SE,131,4.0,5.0,72,-99.99,,,-99.99,,2013-02-11 23:31:00,
2013-02-11 15:41:00,46.0,37.0,30.30,SE,131,4.0,5.0,72,-99.99,,,-99.99,,2013-02-11 23:41:00,
2013-02-11 15:52:00,46.0,38.0,30.30,SSE,152,1.0,6.0,73,-99.99,,,-99.99,,2013-02-11 23:52:00,
2013-02-11 16:01:00,46.0,38.0,30.30,SSE,152,1.0,6.0,73,-99.99,,,-99.99,,2013-02-12 00:01:00,
2013-02-11 16:11:00,46.0,38.0,30.30,SSE,152,1.0,6.0,73,-99.99,,,-99.99,,2013-02-12 00:11:00,
2013-02-11 16:21:00,46.0,38.0,30.30,SE,138,0.0,4.0,74,-99.99,,,-99.99,,2013-02-12 00:21:00,
2013-02-11 16:31:00,46.0,38.0,30.30,SSE,150,1.0,4.0,73,-99.99,,,-99.99,,2013-02-12 00:31:00,
2013-02-11 16:42:00,46.0,38.0,30.30,SSE,150,1.0,4.0,73,-99.99,,,-99.99,,2013-02-12 00:42:00,
2013-02-11 16:52:00,46.0,38.0,30.30,SSE,150,1.0,4.0,73,-99.99,,,-99.99,,2013-02-12 00:52:00,
2013-02-11 17:01:00,46.0,38.0,30.30,South,170,3.0,4.0,74,-99.99,,,-99.99,,2013-02-12 01:01:00,
2013-02-11 17:11:00,46.0,38.0,30.30,South,170,3.0,4.0,74,-99.99,,,-99.99,,2013-02-12 01:11:00,
2013-02-11 17:21:00,46.0,39.0,30.30,SSE,151,1.0,6.0,75,-99.99,,,-99.99,,2013-02-12 01:21:00,
2013-02-11 17:31:00,45.0,38.0,30.31,South,169,0.0,3.0,77,-99.99,,,-99.99,,2013-02-12 01:31:00,
2013-02-11 17:41:00,45.0,39.0,30.31,SE,127,0.0,2.0,78,-99.99,,,-99.99,,2013-02-12 01:41:00,
2013-02-11 17:51:00,45.0,39.0,30.31,SE,127,0.0,2.0,78,-99.99,,,-99.99,,2013-02-12 01:51:00,
2013-02-11 18:01:00,45.0,39.0,30.31,SE,127,0.0,1.0,78,-99.99,,,-99.99,,2013-02-12 02:01:00,
2013-02-11 18:11:00,45.0,39.0,30.32,SE,127,0.0,0.0,80,-99.99,,,-99.99,,2013-02-12 02:11:00,
2013-02-11 18:21:00,45.0,39.0,30.32,SE,127,0.0,0.0,80,-99.99,,,-99.99,,2013-02-12 02:21:00,
2013-02-11 18:31:00,45.0,40.0,30.32,SE,127,0.0,1.0,81,-99.99,,,-99.99,,2013-02-12 02:31:00,
2013-02-11 18:42:00,45.0,40.0,30.32,SE,127,0.0,1.0,81,-99.99,,,-99.99,,2013-02-12 02:42:00,
2013-02-11 18:52:00,44.0,39.0,30.32,SE,127,0.0,0.0,82,-99.99,,,-99.99,,2013-02-12 02:52:00,
2013-02-11 19:01:00,44.0,39.0,30.32,SE,127,0.0,0.0,83,-99.99,,,-99.99,,2013-02-12 03:01:00,
2013-02-11 19:11:00,44.0,39.0,30.32,SE,127,0.0,0.0,83,-99.99,,,-99.99,,2013-02-12 03:11:00,
2013-02-11 19:21:00,44.0,39.0,30.32,SE,127,0.0,0.0,83,-99.99,,,-99.99,,2013-02-12 03:21:00,
2013-02-11 19:31:00,44.0,39.0,30.32,SE,127,0.0,0.0,84,-99.99,,,-99.99,,2013-02-12 03:31:00,
2013-02-11 19:41:00,44.0,39.0,30.32,SE,127,0.0,0.0,84,-99.99,,,-99.99,,2013-02-12 03:41:00,
2013-02-11 19:51:00,44.0,39.0,30.32,SE,127,0.0,0.0,84,-99.99,,,-99.99,,2013-02-12 03:51:00,
2013-02-11 20:01:00,44.0,40.0,30.31,SE,127,0.0,0.0,85,-99.99,,,-99.99,,2013-02-12 04:01:00,
2013-02-11 20:11:00,44.0,40.0,30.31,SE,127,0.0,0.0,85,-99.99,,,-99.99,,2013-02-12 04:11:00,
2013-02-11 20:21:00,44.0,40.0,30.31,SE,127,0.0,0.0,85,-99.99,,,-99.99,,2013-02-12 04:21:00,
2013-02-11 20:31:00,44.0,40.0,30.31,SE,127,0.0,0.0,85,-99.99,,,-99.99,,2013-02-12 04:31:00,
2013-02-11 20:41:00,44.0,40.0,30.31,SE,127,0.0,0.0,85,-99.99,,,-99.99,,2013-02-12 04:41:00,
2013-02-11 20:51:00,44.0,39.0,30.32,SE,127,0.0,2.0,84,-99.99,,,-99.99,,2013-02-12 04:51:00,
2013-02-11 21:01:00,44.0,40.0,30.32,SE,127,0.0,0.0,85,-99.99,,,-99.99,,2013-02-12 05:01:00,
2013-02-11 21:11:00,44.0,40.0,30.31,SE,128,0.0,3.0,85,-99.99,,,-99.99,,2013-02-12 05:11:00,
2013-02-11 21:21:00,44.0,40.0,30.31,SE,128,0.0,3.0,85,-99.99,,,-99.99,,2013-02-12 05:21:00,
2013-02-11 21:31:00,44.0,39.0,30.30,SSE,160,1.0,4.0,84,-99.99,,,-99.99,,2013-02-12 05:31:00,
2013-02-11 21:41:00,44.0,39.0,30.30,SSE,160,1.0,4.0,84,-99.99,,,-99.99,,2013-02-12 05:41:00,
2013-02-11 21:52:00,44.0,39.0,30.31,SE,144,0.0,2.0,84,-99.99,,,-99.99,,2013-02-12 05:52:00,
2013-02-11 22:01:00,44.0,40.0,30.31,SE,144,0.0,1.0,85,-99.99,,,-99.99,,2013-02-12 06:01:00,
2013-02-11 22:11:00,44.0,40.0,30.32,SE,144,0.0,1.0,86,-99.99,,,-99.99,,2013-02-12 06:11:00,
2013-02-11 22:21:00,44.0,40.0,30.32,SE,144,0.0,1.0,86,-99.99,,,-99.99,,2013-02-12 06:21:00,
2013-02-11 22:31:00,44.0,40.0,30.31,SE,144,0.0,0.0,86,-99.99,,,-99.99,,2013-02-12 06:31:00,
2013-02-11 22:42:00,44.0,40.0,30.31,SE,144,0.0,1.0,86,-99.99,,,-99.99,,2013-02-12 06:42:00,
2013-02-11 22:51:00,44.0,40.0,30.31,SE,144,0.0,1.0,86,-99.99,,,-99.99,,2013-02-12 06:51:00,
2013-02-11 23:01:00,44.0,40.0,30.32,SE,144,0.0,0.0,87,-99.99,,,-99.99,,2013-02-12 07:01:00,
2013-02-11 23:11:00,44.0,40.0,30.32,SE,144,0.0,0.0,87,-99.99,,,-99.99,,2013-02-12 07:11:00,
2013-02-11 23:21:00,44.0,40.0,30.32,SE,144,0.0,0.0,87,-99.99,,,-99.99,,2013-02-12 07:21:00,
2013-02-11 23:31:00,44.0,40.0,30.32,SE,144,0.0,1.0,87,-99.99,,,-99.99,,2013-02-12 07:31:00,
2013-02-11 23:41:00,44.0,40.0,30.32,SE,144,0.0,1.0,87,-99.99,,,-99.99,,2013-02-12 07:41:00,
2013-02-11 23:51:00,43.0,40.0,30.32,SE,138,0.0,2.0,88,-99.99,,,-99.99,,2013-02-12 07:51:00,